CAPE
0 0 0 0 0 0 0 0 0 0 0 0 0 0 0 0 0 0 0 0 0 0 0 0 0 0 0 0 0 0 0 0 0 0 0 0 0 0 0 0 0 0 0 0
0 0 0 0 0 0 0 0 0 0 0 0 0 0 0 0 0 0 0 0 0 0 0 0 0 0 0 0 0 0 0 0 0 0 0 0 0 0 0 0 0 0 0 0
0 0 0 0 0 0 0 0 0 0 0 0 0 0 0 0 0 0 0 0 0 0 0 0 0 0 0 0 0 0 0 0 0 0 0 0 0 0 0 0 0 0 0 0
0 0 0 0 0 0 0 0 0 0 0 0 0 0 0 0 0 0 0 0 0 0 0 0 0 0 0 0 0 0 0 0 0 0 0 0 0 0 0 0 0 0 0 0
0 0 0 0 0 0 0 0 0 0 0 0 0 0 0 0 0 0 0 0 0 0 0 0 0 0 0 0 0 0 0 0 0 0 0 0 0 0 0 0 0 0 0 0
0 0 0 0 0 0 0 0 0 0 0 0 0 0 0 0 0 0 0 0 0 0 0 0 0 0 0 0 0 0 0 0 0 0 0 0 0 0 0 0 0 0 0 0
0 0 0 0 0 0 0 0 0 0 0 0 0 0 0 0 0 0 0 0 0 0 0 0 0 0 0 0 0 0 0 0 0 0 0 0 0 0 0 0 0 0 0 0
0 0 0 0 0 0 0 0 0 0 0 0 0 0 0 0 0 0 0 0 0 0 0 0 0 0 0 0 0 0 0 0 0 0 0 0 0 0 0 0 0 0 0 0
0 0 0 0 0 0 0 0 0 0 0 0 0 0 0 0 0 0 0 0 0 0 0 0 0 0 0 0 0 0 0 0 0 0 0 0 0 0 0 0 0 0 0 0
0 0 0 0 0 0 0 0 0 0 0 0 0 0 0 0 0 0 0 0 0 0 0 0 0 0 0 0 0 0 0 0 0 0 0 0 0 0 0 0 0 0 0 0
0 0 0 0 0 0 0 0 0 0 0 0 0 0 0 0 0 0 0 0 0 0 0 0 0 0 0 0 0 0 0 0 0 0 0 0 0 0 0 0 0 0 0 0
0 0 0 0 0 0 0 0 0 0 0 0 0 0 0 0 0 0 0 0 0 0 0 0 0 0 0 0 0 0 0 0 0 0 0 0 0 0 0 0 0 0 0 0
0 0 0 0 0 0 0 0 0 0 0 0 0 0 0 0 0 0 0 0 0 0 0 0 0 0 0 0 0 0 0 0 0 0 0 0 0 0 0 0 0 0 0 0
0 0 0 0 0 0 0 0 0 0 0 0 0 0 0 0 0 0 0 0 0 0 0 0 0 0 0 0 0 0 0 0 0 0 0 0 0 0 0 0 0 0 0 0
0 0 0 0 0 0 0 0 0 0 0 0 0 0 0 0 0 0 0 0 0 0 0 0 0 0 0 0 0 0 0 0 0 0 0 0 0 0 0 0 0 0 0 0
0 0 0 0 0 0 0 0 0 0 0 0 0 0 0 0 0 0 0 0 0 0 0 0 0 0 0 0 0 0 0 0 0 0 0 0 0 0 0 0 0 0 0 0
0 0 0 0 0 0 0 0 0 0 0 0 0 0 0 0 0 0 0 0 0 0 0 0 0 0 0 0 0 0 0 0 0 0 0 0 0 0 0 0 0 0 0 0
0 0 0 0 0 0 0 0 0 0 0 0 0 0 0 0 0 0 0 0 0 0 0 0 0 0 0 0 0 0 0 0 0 0 0 0 0 0 0 0 0 0 0 0
0 0 0 0 0 0 0 0 0 0 0 0 0 0 0 0 0 0 0 0 0 0 0 0 0 0 0 0 0 0 0 0 0 0 0 0 0 0 0 0 0 0 0 0
0 0 0 0 0 0 0 0 0 0 0 0 0 0 0 0 0 0 0 0 0 0 0 0 0 0 0 0 0 0 0 0 0 0 0 0 0 0 0 0 0 0 0 0
0 0 0 0 0 0 0 0 0 0 0 0 0 0 0 0 0 0 0 0 0 0 0 0 0 0 0 0 0 0 0 0 0 0 0 0 0 0 0 0 0 0 0 0
0 0 0 0 0 0 0 0 0 0 0 0 0 0 0 0 0 0 0 0 0 0 0 0 0 0 0 0 0 0 0 0 0 0 0 0 0 0 0 0 0 0 0 0
0 0 0 0 0 0 0 0 0 0 0 0 0 0 0 0 0 0 0 0 0 0 0 0 0 0 0 0 0 0 0 0 0 0 0 0 0 0 0 0 0 0 0 0
0 0 0 0 0 0 0 0 0 0 0 0 0 0 0 0 0 0 0 0 0 0 0 0 0 0 0 0 0 0 0 0 0 0 0 0 0 0 0 0 0 0 0 0
0 0 0 0 0 0 0 0 0 0 0 0 0 0 0 0 0 0 0 0 0 0 0 0 0 0 0 0 0 0 0 0 0 0 0 0 0 0 0 0 0 0 0 0
0 0 0 0 0 0 0 0 0 0 0 0 0 0 0 0 0 0 0 0 0 0 0 0 0 0 0 0 0 0 0 0 0 0 0 0 0 0 0 0 0 0 0 0
0 0 0 0 0 0 0 0 0 0 0 0 0 0 0 0 0 0 0 0 0 0 0 0 0 1 0 0 0 0 0 0 0 0 0 0 0 0 0 0 0 0 0 0
CIN
0 0 0 0 0 0 0 0 0 0 0 0 0 0 0 0 0 0 0 0 0 0 0 0 0 0 0 0 0 0 0 0 0 0 0 0 0 0 0 0 0 0 0 0
0 0 0 0 0 0 0 0 0 0 0 0 0 0 0 0 0 0 0 0 0 0 0 0 0 0 0 0 0 0 0 0 0 0 0 0 0 0 0 0 0 0 0 0
0 0 0 0 0 0 0 0 0 0 0 0 0 0 0 0 0 0 0 0 0 0 0 0 0 0 0 0 0 0 0 0 0 0 0 0 0 0 0 0 0 0 0 0
0 0 0 0 0 0 0 0 0 0 0 0 0 0 0 0 0 0 0 0 0 0 0 0 0 0 0 0 0 0 0 0 0 0 0 0 0 0 0 0 0 0 0 0
0 0 0 0 0 0 0 0 0 0 0 0 0 0 0 0 0 0 0 0 0 0 0 0 0 0 0 0 0 0 0 0 0 0 0 0 0 0 0 0 0 0 0 0
0 0 0 0 0 0 0 0 0 0 0 0 0 0 0 0 0 0 0 0 0 0 0 0 0 0 0 0 0 0 0 0 0 0 0 0 0 0 0 0 0 0 0 0
0 0 0 0 0 0 0 0 0 0 0 0 0 0 0 0 0 0 0 0 0 0 0 0 0 0 0 0 0 0 0 0 0 0 0 0 0 0 0 0 0 0 0 0
0 0 0 0 0 0 0 0 0 0 0 0 0 0 0 0 0 0 0 0 0 0 0 0 0 0 0 0 0 0 0 0 0 0 0 0 0 0 0 0 0 0 0 0
0 0 0 0 0 0 0 0 0 0 0 0 0 0 0 0 0 0 0 0 0 0 0 0 0 0 0 0 0 0 0 0 0 0 0 0 0 0 0 0 0 0 0 0
0 0 0 0 0 0 0 0 0 0 0 0 0 0 0 0 0 0 0 0 0 0 0 0 0 0 0 0 0 0 0 0 0 0 0 0 0 0 0 0 0 0 0 0
0 0 0 0 0 0 0 0 0 0 0 0 0 0 0 0 0 0 0 0 0 0 0 0 0 0 0 0 0 0 0 0 0 0 0 0 0 0 0 0 0 0 0 0
0 0 0 0 0 0 0 0 0 0 0 0 0 0 0 0 0 0 0 0 0 0 0 0 0 0 0 0 0 0 0 0 0 0 0 0 0 0 0 0 0 0 0 0
0 0 0 0 0 0 0 0 0 0 0 0 0 0 0 0 0 0 0 0 0 0 0 0 0 0 0 0 0 0 0 0 0 0 0 0 0 0 0 0 0 0 0 0
0 0 0 0 0 0 0 0 0 0 0 0 0 0 0 0 0 0 0 0 0 0 0 0 0 0 0 0 0 0 0 0 0 0 0 0 0 0 0 0 0 0 0 0
0 0 0 0 0 0 0 0 0 0 0 0 0 0 0 0 0 0 0 0 0 0 0 0 0 0 0 0 0 0 0 0 0 0 0 0 0 0 0 0 0 0 0 0
0 0 0 0 0 0 0 0 0 0 0 0 0 0 0 0 0 0 0 0 0 0 0 0 0 0 0 0 0 0 0 0 0 0 0 0 0 0 0 0 0 0 0 0
0 0 0 0 0 0 0 0 0 0 0 0 0 0 0 0 0 0 0 0 0 0 0 0 0 0 0 0 0 0 0 0 0 -1 0 0 0 0 0 0 0 0 0 0
0 0 0 0 0 0 0 0 0 0 0 0 0 0 0 0 0 0 0 0 0 0 0 0 0 0 0 0 0 0 0 0 0 0 0 0 0 0 0 0 0 0 0 0
0 0 0 0 0 0 0 0 0 0 0 0 0 0 0 0 0 0 0 0 0 0 0 0 0 0 0 0 0 0 0 0 0 0 0 0 0 0 0 0 0 0 0 0
0 0 0 0 0 0 0 0 0 0 0 0 0 0 0 0 0 0 0 0 0 0 0 0 0 0 0 -1 0 0 0 0 0 0 0 0 0 0 0 0 0 0 0 0
0 0 0 0 0 0 0 0 0 0 0 0 0 0 0 0 0 0 0 0 0 0 0 0 0 0 0 0 0 0 0 0 0 0 0 0 0 0 0 0 0 0 0 0
0 0 0 0 0 0 0 0 0 0 0 0 0 0 0 0 0 0 0 0 0 0 0 0 0 0 0 0 0 0 0 -1 -1 0 0 -2 0 0 0 0 0 0 0 0
0 0 0 0 0 0 0 0 0 0 0 0 0 0 0 0 0 0 0 0 0 0 0 0 0 0 0 0 0 0 0 -1 0 0 -2 -1 0 0 0 0 0 0 0 0
0 0 0 0 0 0 0 0 0 0 0 0 0 0 0 0 0 0 0 0 0 0 0 0 0 0 0 0 0 -3 -1 0 0 0 0 0 0 0 0 0 0 0 0 0
0 0 0 0 0 0 0 0 0 0 0 0 0 0 0 0 0 0 0 0 0 0 0 0 0 0 0 0 0 0 0 0 0 0 0 0 0 0 0 0 0 0 0 0
0 0 0 0 0 0 0 0 0 0 0 0 0 0 0 0 0 0 0 0 0 0 0 0 0 0 0 0 0 0 -1 0 0 0 0 0 0 0 0 0 0 0 0 0
0 0 0 0 0 0 0 0 0 0 0 0 0 0 0 0 0 0 0 0 0 0 0 -3 0 -3 -3 0 0 0 0 0 0 0 0 0 0 0 0 0 0 0 0 0
Wind_Speed
39 40 41 41 40 40 32 31 37 37 30 35 34 36 33 33 34 32 30 29 31 32 35 31 29 32 31 37 39 38 25 26 34 31 14 18 16 24 25 26 26 23 21 22
40 42 42 42 39 37 31 33 32 33 31 39 38 32 32 31 33 32 33 31 31 30 30 31 29 29 30 36 40 39 30 26 33 25 24 25 23 27 27 29 26 22 23 18
41 43 44 43 39 35 29 33 37 35 36 32 34 33 34 34 30 28 32 28 29 32 28 28 26 32 28 30 37 35 23 27 21 18 17 21 23 24 23 23 24 19 16 9
42 43 45 45 41 35 29 34 34 31 39 38 37 31 33 35 33 29 32 28 32 29 29 30 29 29 29 25 37 33 23 21 20 17 17 22 24 23 21 17 19 20 12 7
43 44 46 47 45 32 34 34 32 31 32 32 33 36 35 33 30 29 31 32 32 28 28 27 27 29 27 27 32 34 27 17 14 16 17 22 26 25 20 16 14 8 7 12
42 45 46 48 47 35 33 30 27 28 35 34 33 34 32 28 28 24 23 26 28 28 27 22 18 15 19 23 30 37 27 19 16 20 22 20 20 25 21 16 15 15 15 16
42 44 46 46 46 39 31 29 27 30 35 34 33 31 28 27 25 26 25 24 26 24 22 20 23 23 23 27 26 35 31 21 19 19 17 18 19 22 20 16 16 14 14 16
42 42 44 44 42 41 36 29 28 29 34 31 31 30 30 27 24 23 24 23 22 23 23 21 23 25 25 25 31 37 37 22 23 21 19 14 20 22 19 17 16 17 17 18
41 42 42 43 42 36 34 36 28 27 29 34 26 29 29 31 30 26 24 22 22 25 24 25 28 28 24 29 30 32 33 33 25 22 19 19 23 24 20 17 16 20 19 19
40 40 40 41 39 36 35 34 28 28 31 28 28 32 30 27 28 26 23 26 27 26 25 27 28 27 23 30 33 30 33 31 30 26 21 20 24 22 18 16 21 25 22 22
39 37 38 38 37 35 34 33 30 28 29 28 27 28 31 28 29 32 27 22 27 27 27 26 24 28 28 25 28 29 30 28 28 26 22 21 27 22 19 23 26 26 26 25
37 36 35 37 36 33 29 33 29 29 29 26 23 25 25 26 25 26 29 27 25 25 25 24 24 27 24 31 31 26 27 26 23 22 20 24 28 25 25 27 27 28 28 29
36 34 33 35 34 33 30 31 26 25 26 29 29 29 25 22 24 23 27 26 25 26 23 24 24 28 26 27 30 33 26 21 22 27 22 29 26 20 30 32 31 31 31 32
34 33 30 31 31 32 32 33 28 26 23 27 27 24 28 22 22 23 24 25 24 25 25 26 25 25 26 25 25 35 29 21 19 16 20 27 21 34 36 34 34 34 34 34
30 32 27 27 27 27 30 33 34 29 24 26 24 24 28 24 20 20 21 23 24 25 26 27 26 23 24 30 26 34 35 33 30 23 16 29 22 28 34 35 36 36 37 37
27 29 28 28 23 21 22 28 28 31 24 25 26 22 28 28 22 20 21 22 22 24 24 25 24 22 23 30 29 31 32 26 21 25 31 31 23 35 36 37 36 37 37 36
24 26 28 32 33 32 33 30 23 22 23 25 28 26 25 27 23 21 20 20 21 22 21 23 23 23 22 26 33 24 37 33 28 25 37 38 28 40 40 38 38 38 37 36
23 22 25 27 27 28 30 29 30 26 28 29 32 27 25 27 24 21 21 19 19 23 21 19 21 21 22 29 28 25 27 34 31 35 32 24 31 40 40 38 39 40 38 37
21 21 22 23 28 31 26 22 27 33 35 32 33 37 30 24 24 20 17 19 20 19 23 20 19 22 28 31 34 38 40 40 45 44 40 40 40 42 42 40 40 40 40 40
23 22 24 28 25 21 21 24 29 32 32 32 35 30 31 24 22 21 20 18 19 19 21 18 20 22 26 33 35 34 38 40 44 50 51 49 47 47 45 43 41 41 40 41
23 25 27 24 20 26 30 33 33 31 33 32 30 30 30 23 24 19 21 19 18 21 21 22 23 24 38 42 43 42 42 41 41 41 40 42 43 45 46 44 43 42 41 40
25 26 24 26 30 30 34 36 31 30 32 30 30 27 24 22 20 20 20 19 21 21 21 23 27 31 41 49 49 48 47 45 43 41 40 37 40 40 40 38 38 37 38 38
24 27 29 29 30 38 37 38 32 30 27 27 26 25 23 22 24 20 21 21 21 18 22 26 28 39 46 46 43 38 37 37 37 38 39 39 39 40 39 39 36 35 35 36
27 32 37 36 33 33 29 27 26 22 22 24 24 23 25 24 26 24 23 21 22 24 26 31 37 41 37 35 34 35 36 36 35 39 39 39 39 39 38 37 36 36 33 35
31 31 34 35 29 28 25 23 24 24 22 22 24 23 24 26 28 27 23 27 26 26 31 32 35 33 32 32 33 33 33 34 37 37 38 38 37 37 37 37 35 32 32 32
32 32 32 30 32 34 31 29 29 27 25 23 25 27 28 30 28 28 28 29 28 30 31 32 30 29 30 30 31 32 33 34 34 35 35 35 34 34 34 33 35 31 32 31
30 30 30 32 31 33 31 29 28 27 30 30 27 32 31 24 28 31 28 29 28 30 30 29 27 27 28 29 31 32 33 34 34 34 34 32 30 31 31 31 33 33 36 32
Wind_Direction
6 4 3 2 1 1 7 2 354 2 9 358 360 354 356 356 354 359 357 355 353 351 351 354 355 354 356 356 353 346 354 344 322 316 332 329 330 284 279 265 262 267 265 276
8 6 5 4 4 7 8 2 1 9 11 356 359 359 359 1 359 360 359 357 358 357 356 356 359 360 359 358 357 350 355 351 326 321 298 310 303 299 284 268 267 270 265 270
11 8 7 6 8 11 15 5 357 3 13 12 4 2 0 359 3 3 1 2 3 0 4 3 2 359 5 5 3 359 15 1 3 359 344 318 312 309 300 278 265 269 281 245
12 11 9 9 11 14 17 10 4 7 0 5 9 8 5 2 2 6 6 6 5 5 4 5 6 9 10 16 7 9 18 16 22 27 8 356 345 328 313 308 287 272 257 267
15 14 11 9 10 18 18 9 9 13 11 11 9 10 7 6 7 8 7 7 6 11 11 11 8 11 18 17 12 8 9 14 22 356 331 317 346 342 329 311 301 301 291 270
17 15 14 12 12 21 19 20 23 18 12 11 10 10 11 12 12 15 16 14 13 14 15 20 24 43 43 31 21 8 13 15 17 350 322 310 308 329 335 328 323 286 281 281
18 18 17 16 17 24 27 25 24 16 10 15 16 16 17 16 18 18 19 22 20 21 20 36 38 40 44 40 36 23 15 29 22 354 341 343 316 324 320 328 333 321 309 300
19 18 18 19 22 25 30 30 26 21 16 19 21 20 21 22 24 25 23 26 28 22 29 30 24 24 33 38 27 16 15 34 21 26 13 360 334 320 319 321 325 317 304 303
18 18 19 20 22 28 32 29 37 33 22 19 28 26 26 24 22 24 29 31 30 27 33 31 25 22 28 23 345 359 6 14 35 24 13 354 326 314 306 305 318 323 320 312
19 20 21 21 24 29 34 32 39 38 34 36 37 29 28 30 29 27 30 29 26 33 34 30 28 27 39 25 16 21 6 13 12 14 25 13 332 314 326 315 297 309 310 306
21 22 23 24 27 31 37 35 39 44 42 44 44 42 34 35 34 28 30 38 34 32 32 35 35 34 35 34 34 23 20 11 10 10 8 358 337 334 341 313 310 309 308 307
22 24 26 26 28 34 40 35 45 49 47 48 53 50 48 45 45 42 40 46 46 44 42 43 46 36 41 34 26 38 24 29 26 21 19 346 315 311 331 324 299 306 307 304
23 28 31 30 32 38 44 42 44 47 49 46 45 42 48 54 54 58 47 51 54 51 57 52 49 39 42 35 31 23 36 47 33 3 22 311 288 357 330 317 307 300 300 296
27 31 35 36 39 43 46 43 44 47 51 38 43 52 45 53 59 57 59 60 59 56 52 46 45 45 47 40 38 22 26 37 34 39 21 312 3 319 309 304 310 308 307 305
33 34 41 42 45 49 48 49 44 47 48 40 48 50 44 50 58 61 63 58 53 49 47 44 44 50 46 37 35 16 8 7 10 15 349 357 282 289 303 310 303 306 306 305
41 41 44 42 47 52 46 38 45 43 55 50 42 52 42 40 52 59 58 55 54 53 52 50 50 54 48 33 31 23 18 22 22 8 355 300 284 324 318 316 306 308 314 311
51 50 50 47 49 52 46 43 42 45 57 52 44 44 45 43 54 60 61 63 63 58 61 58 58 54 54 41 25 20 6 8 11 8 345 339 358 328 322 323 321 318 317 317
59 59 57 54 56 55 50 51 49 57 57 53 42 41 45 43 48 57 56 61 65 54 59 63 55 54 49 29 21 17 14 5 5 356 356 356 347 333 328 331 324 321 322 322
62 61 59 55 49 45 51 60 58 54 53 48 44 35 37 42 48 57 62 63 60 62 51 52 50 43 30 16 10 4 359 354 339 340 343 340 338 333 332 331 328 326 323 322
60 58 51 42 47 55 59 55 47 46 49 51 43 42 38 43 48 55 55 62 56 52 48 47 43 38 25 11 5 2 357 352 346 335 331 330 330 329 328 327 326 324 321 320
56 51 50 52 59 53 48 43 43 41 42 39 38 37 34 49 44 50 54 54 51 45 40 37 30 23 6 2 358 356 353 350 347 344 340 337 334 330 327 326 325 324 322 321
62 62 63 54 49 47 42 39 43 44 39 32 32 33 41 45 52 51 49 52 45 39 30 31 20 9 1 356 354 352 350 349 348 348 347 346 343 341 337 335 332 330 329 329
64 56 53 50 49 43 40 35 39 34 33 34 30 36 44 46 47 51 49 48 37 32 33 23 14 360 357 356 357 357 359 358 356 354 352 349 346 344 341 337 336 333 330 330
57 52 47 50 46 43 44 37 35 35 33 29 34 45 46 45 42 45 44 39 37 31 23 10 360 357 355 358 360 0 359 359 358 357 354 352 350 348 346 344 341 338 335 332
58 57 53 52 54 49 46 45 41 40 40 40 46 49 47 44 44 44 44 36 30 28 11 357 354 351 355 357 358 359 358 360 360 359 357 356 355 353 351 350 346 344 342 338
62 61 62 60 53 46 46 47 44 43 41 54 52 46 46 44 42 40 39 28 27 7 357 351 350 350 354 356 358 359 2 1 0 1 360 359 358 357 354 353 351 349 345 344
64 66 66 62 57 51 49 49 45 44 48 49 51 47 44 43 39 37 35 26 4 352 350 354 356 354 356 359 0 4 3 3 3 2 2 1 358 357 356 354 354 351 345 347